Regional Weather Roundup
Issued by NWS

Home | Current Version | Previous Version | Graphics & Text | Print | Product List | Glossary On
Versions: 1 2 3 4 5 6 7 8 9 10 11 12 13 14 15 16 17 18 19 20 21 22 23 24 25 26 27 28 29 30 31 32 33 34 35 36 37 38 39 40 41 42 43 44 45 46 47 48 49 50
000
ASUS43 KLMK 032202
RWRKY
KENTUCKY REGIONAL WEATHER ROUNDUP
NATIONAL WEATHER SERVICE LOUISVILLE KY
500 PM EST SAT DEC 03 2016

NOTE "FAIR" INDICATES FEW OR NO CLOUDS BELOW 12,000 FEET
WITH NO SIGNIFICANT WEATHER AND/OR OBSTRUCTIONS TO VISIBILITY.

KYZ001>023-026-027-061>063-070>075-032300-
WESTERN AND SOUTH CENTRAL KENTUCKY

CITY           SKY/WX    TMP DP  RH WIND       PRES   REMARKS
PADUCAH        CLOUDY    43  30  60 E9        30.26F
HENDERSON      CLOUDY    43  28  56 CALM      30.29F
OWENSBORO      CLOUDY    43  30  60 E5        30.30F
HOPKINSVILLE   CLOUDY    42  31  66 NE6       30.27F
BOWLING GREEN  MOCLDY    43  31  62 E3        30.30F
GLASGOW        CLOUDY    41  32  70 E3        30.28F
$$

KYZ024-025-028>034-038-045-046-053-032300-
NORTH CENTRAL KENTUCKY

CITY           SKY/WX    TMP DP  RH WIND       PRES   REMARKS
LOUISVILLE/SDF CLOUDY    43  26  51 NE3       30.31F
LOUISVILLE/LOU CLOUDY    43  27  53 NE3       30.32F
FORT KNOX      CLOUDY    41  29  63 N3        30.28F
$$

KYZ035>037-039>044-047>052-055>060-089>105-032300-
NORTHEAST KENTUCKY

CITY           SKY/WX    TMP DP  RH WIND       PRES   REMARKS
LEXINGTON      CLOUDY    40  28  62 NE5       30.31S
COVINGTON      CLOUDY    40  29  64 CALM      30.30S
FRANKFORT      CLOUDY    42  28  57 CALM      30.30S
$$

KYZ054-064>069-076>088-106>120-032300-
SOUTHEAST KENTUCKY

CITY           SKY/WX    TMP DP  RH WIND       PRES   REMARKS
JACKSON        CLOUDY    39  28  64 CALM      30.29S
LONDON         CLOUDY    41  28  60 NE3       30.28F
SOMERSET       CLOUDY    39  30  70 CALM      30.31F
MIDDLESBORO    MOCLDY    42  30  63 CALM      30.29S
MONTICELLO     CLOUDY    41  31  67 W6        30.31F
$$





USA.gov is the U.S. government's official web portal to all federal, state and local government web resources and services.